Weather History for V.C. Bird, Antigua

Change the Weather History Date:

Friday, August 9, 2013

  Actual Average Record
Temperature  
Mean Temperature 82 °F -  
Max Temperature 87 °F 86 °F 89 °F (1996)
Min Temperature 76 °F 77 °F 75 °F (2010)
Cooling Degree Days 16    
Growing Degree Days 32 (Base 50)    
Moisture  
Dew Point 75 °F    
Average Humidity 75    
Maximum Humidity 89    
Minimum Humidity 63    
Precipitation  
Precipitation 0.08 in - - ()
Sea Level Pressure  
Sea Level Pressure 29.93 in    
Wind  
Wind Speed 10 mph ()    
Max Wind Speed 14 mph    
Max Gust Speed -    
Visibility 8.6 miles    
Events Rain , Thunderstorm    
Averages and records for this station are not official NWS values.
T = Trace of Precipitation, MM = Missing Value Source: Averaged Metar Reports

Daily Weather History Graph

Daily Weather History Graph

Search for Another Location

Airport:

Trip Planner

Search our weather history database for the weather conditions in past years. The results will help you decide how hot, cold, wet, or windy it might be!

Date:

Astronomy

Aug. 09, 2013 Rise Set
Actual Time 5:49 AM AST 6:35 PM AST
Civil Twilight 5:26 AM AST 6:58 PM AST
Nautical Twilight 4:59 AM AST 7:25 PM AST
Astronomical Twilight 4:32 AM AST 7:52 PM AST
Moon 7:57 AM AST (8/9) 8:20 PM AST (8/9)
Length of Visible Light 13h 32m
Length of Day
12h 46m
Waxing Crescent, 7% of the Moon is Illuminated
Aug 9
Waxing Crescent
Aug 14
First Quarter
Aug 20
Full
Aug 28
Last Quarter
Sep 5
New

Hourly Weather History & Observations

Time (AST) Temp. Heat Index Dew Point Humidity Pressure Visibility Wind Dir Wind Speed Gust Speed Precip Events Conditions
12:00 AM 80.6 °F 85.4 °F 73.4 °F 79% 29.92 in 6.2 mi East 9.2 mph - N/A Thunderstorm Partly Cloudy
1:00 AM 82.4 °F 89.5 °F 75.2 °F 79% 29.92 in 6.2 mi ENE 11.5 mph - N/A   Mostly Cloudy
2:00 AM 82 °F - 75 °F 73% 29.91 in 14 mi ENE 13.8 mph - -   Mostly Cloudy
2:00 AM 82.4 °F 89.5 °F 75.2 °F 79% 29.89 in 6.2 mi ENE 13.8 mph - N/A   Mostly Cloudy
3:00 AM 78.8 °F - 75.2 °F 89% 29.89 in 6.2 mi East 9.2 mph - N/A   Scattered Clouds
4:00 AM 78.8 °F - 75.2 °F 89% 29.89 in 6.2 mi East 9.2 mph - N/A   Scattered Clouds
5:00 AM 80 °F - 74 °F 78% 29.91 in 16 mi East 9.2 mph - -   Widespread Dust
5:00 AM 78.8 °F - 75.2 °F 89% 29.89 in 6.2 mi East 9.2 mph - N/A   Scattered Clouds
6:00 AM 80.6 °F 86.2 °F 75.2 °F 84% 29.92 in 6.2 mi ENE 8.1 mph - N/A   Scattered Clouds
7:00 AM 80.6 °F 86.2 °F 75.2 °F 84% 29.92 in 6.2 mi East 10.4 mph - N/A   Mostly Cloudy
8:00 AM 81 °F - 75 °F 77% 29.95 in 16 mi East 12.7 mph - - Rain Light Rain Showers
8:00 AM 80.6 °F 86.2 °F 75.2 °F 84% 29.95 in 6.2 mi East 12.7 mph - N/A   Scattered Clouds
9:00 AM 84.2 °F 92.3 °F 75.2 °F 74% 29.95 in 6.2 mi East 13.8 mph - N/A   Mostly Cloudy
10:00 AM 86.0 °F 96.9 °F 77.0 °F 74% 29.95 in 6.2 mi East 11.5 mph - N/A   Scattered Clouds
11:00 AM 87 °F - 76 °F 63% 29.95 in 16 mi East 13.8 mph - -   Widespread Dust
11:00 AM 86.0 °F 96.9 °F 77.0 °F 74% 29.95 in 6.2 mi East 13.8 mph - N/A   Mostly Cloudy
12:00 PM 87.8 °F 97.6 °F 75.2 °F 66% 29.95 in 6.2 mi East 12.7 mph - N/A   Scattered Clouds
1:00 PM 87.8 °F 97.6 °F 75.2 °F 66% 29.95 in 6.2 mi East 13.8 mph - N/A   Mostly Cloudy
2:00 PM 87 °F - 76 °F 64% 29.93 in 16 mi East 13.8 mph - - Rain Light Rain Showers
2:00 PM 87.8 °F 99.7 °F 77.0 °F 70% 29.92 in 6.2 mi East 13.8 mph - N/A   Scattered Clouds
3:00 PM 86.0 °F 95.1 °F 75.2 °F 70% 29.92 in 6.2 mi East 10.4 mph - N/A   Scattered Clouds
4:00 PM 86.0 °F 95.1 °F 75.2 °F 70% 29.89 in 6.2 mi East 13.8 mph - N/A   Scattered Clouds
5:00 PM 85 °F - 75 °F 66% 29.91 in 16 mi East 11.5 mph - -   Widespread Dust
5:00 PM 84.2 °F 92.3 °F 75.2 °F 74% 29.89 in 6.2 mi East 11.5 mph - N/A   Scattered Clouds
6:00 PM 84.2 °F 92.3 °F 75.2 °F 74% 29.89 in 6.2 mi East 9.2 mph - N/A   Mostly Cloudy
7:00 PM 82.4 °F 89.5 °F 75.2 °F 79% 29.92 in 6.2 mi East 10.4 mph - N/A   Partly Cloudy
8:00 PM 83 °F - 74 °F 69% 29.94 in 16 mi East 10.4 mph - -   Widespread Dust
8:00 PM 82.4 °F 89.5 °F 75.2 °F 79% 29.92 in 6.2 mi East 10.4 mph - N/A   Scattered Clouds
9:00 PM 82.4 °F 88.2 °F 73.4 °F 74% 29.95 in 6.2 mi East 10.4 mph - N/A   Partly Cloudy
10:00 PM 82.4 °F 88.2 °F 73.4 °F 74% 29.95 in 6.2 mi East 11.5 mph - N/A   Partly Cloudy
11:00 PM 82 °F - 74 °F 72% 29.98 in 16 mi East 12.7 mph - -   Widespread Dust
11:00 PM 82.4 °F 89.5 °F 75.2 °F 79% 29.98 in 6.2 mi East 12.7 mph - N/A   Scattered Clouds